This is the latest recevied weather packets stored in our database for station/object KF0DL. If no packets are shown the sender has not sent any weather packets the latest 10 day(s).
| Time | Temp. | Humidity | Pressure | Rain* | Wind** | Luminosity | Snow |
|---|---|---|---|---|---|---|---|
| 1778220505 | 10° C | 26% | 1012.8 hPa | 0 mm | - | - | - |
| 1778220212 | 10.56° C | 26% | 1012.8 hPa | 0 mm | - | - | - |
| 1778219900 | 10.56° C | 25% | 1013 hPa | 0 mm | - | - | - |
| 1778219607 | 10.56° C | 25% | 1013 hPa | 0 mm | - | - | - |
| 1778219314 | 10.56° C | 25% | 1013 hPa | 0 mm | - | - | - |
| 1778219006 | 11.11° C | 25% | 1013 hPa | 0 mm | - | - | - |
| 1778218712 | 11.11° C | 24% | 1012.1 hPa | 0 mm | - | - | - |
| 1778218399 | 11.11° C | 23% | 1012.1 hPa | 0 mm | - | - | - |
| 1778218107 | 11.11° C | 23% | 1012.1 hPa | 0 mm | - | - | - |
| 1778217812 | 11.11° C | 24% | 1013 hPa | 0 mm | - | - | - |
| 1778217499 | 11.11° C | 24% | 1013 hPa | 0 mm | - | - | - |
| 1778217204 | 11.11° C | 24% | 1013 hPa | 0 mm | - | - | - |
| 1778216909 | 11.11° C | 24% | 1012.4 hPa | 0 mm | - | - | - |
| 1778216617 | 11.11° C | 24% | 1012.4 hPa | 0 mm | - | - | - |
| 1778216303 | 11.11° C | 24% | 1012.3 hPa | 0 mm | - | - | - |
| 1778216016 | 11.11° C | 24% | 1012.3 hPa | 0 mm | - | - | - |
| 1778215701 | 11.67° C | 23% | 1012.3 hPa | 0 mm | - | - | - |
| 1778215410 | 11.67° C | 23% | 1012.3 hPa | 0 mm | - | - | - |
| 1778215118 | 11.67° C | 23% | 1012.4 hPa | 0 mm | - | - | - |
| 1778214805 | 12.22° C | 22% | 1012.4 hPa | 0 mm | - | - | - |
| 1778214512 | 12.22° C | 22% | 1012.4 hPa | 0 mm | - | - | - |
| 1778214218 | 12.22° C | 21% | 1012.4 hPa | 0 mm | - | - | - |
| 1778213904 | 12.78° C | 21% | 1012.4 hPa | 0 mm | - | - | - |
| 1778213612 | 12.78° C | 20% | 1012.4 hPa | 0 mm | - | - | - |
| 1778213303 | 12.22° C | 20% | 1012.9 hPa | 0 mm | - | - | - |
* Rain latest hour (hover to see other rain measurements)
** Current wind speed in m/s (hover to see current wind gust speed)